| time (UTC) | temp F | wind direction | speed MPH | gust MPH | rain 1hr in | rain 24hr in | rain mn in | humidity % | barometer mb |
| 20260831045529 | 85 | 260 | 8.0 | 21.0 | 0.00 | 0.00 | 0.00 | 57 | 1008.7 |
| 20260831045030 | 84 | 263 | 9.0 | 21.0 | 0.00 | 0.00 | 0.00 | 58 | 1009.0 |
| 20260831044549 | 83 | 228 | 6.0 | 18.0 | 0.00 | 0.00 | 0.00 | 61 | 1009.2 |
| 20260831044027 | 83 | 244 | 8.0 | 13.0 | 0.00 | 0.00 | 0.00 | 64 | 1009.2 |
| 20260831043527 | 83 | 244 | 5.0 | 23.0 | 0.00 | 0.00 | 0.00 | 63 | 1009.4 |
| 20260831043053 | 84 | 275 | 7.0 | 23.0 | 0.00 | 0.00 | 0.00 | 58 | 1009.5 |
| 20260831042524 | 85 | 272 | 9.0 | 23.0 | 0.00 | 0.00 | 0.00 | 55 | 1009.6 |
| 20260831042025 | 87 | 235 | 9.0 | 21.0 | 0.00 | 0.00 | 0.00 | 52 | 1009.2 |
| 20260831041559 | 89 | 242 | 9.0 | 15.0 | 0.00 | 0.00 | 0.00 | 52 | 1009.2 |
| 20260831041029 | 89 | 256 | 4.0 | 15.0 | 0.00 | 0.00 | 0.00 | 53 | 1008.8 |
| 20260831040528 | 90 | 229 | 7.0 | 15.0 | 0.00 | 0.00 | 0.00 | 49 | 1008.7 |
| 20260831040054 | 90 | 233 | 6.0 | 21.0 | 0.00 | 0.00 | 0.00 | 47 | 1008.8 |
| 20260831035524 | 90 | 230 | 7.0 | 21.0 | 0.00 | 0.00 | 0.00 | 46 | 1008.7 |
| 20260831035025 | 90 | 173 | 7.0 | 24.0 | 0.00 | 0.00 | 0.00 | 46 | 1008.6 |
| 20260831034550 | 90 | 220 | 10.0 | 24.0 | 0.00 | 0.00 | 0.00 | 46 | 1008.5 |
| 20260831034027 | 91 | 221 | 9.0 | 22.0 | 0.00 | 0.00 | 0.00 | 45 | 1008.8 |
| 20260831033527 | 93 | 217 | 8.0 | 22.0 | 0.00 | 0.00 | 0.00 | 43 | 1008.7 |
| 20260831033050 | 98 | 245 | 8.0 | 20.0 | 0.00 | 0.00 | 0.00 | 35 | 1008.6 |
| 20260831032528 | 100 | 0 | 0.0 | 3.0 | 0.00 | 0.00 | 0.00 | 33 | 1007.7 |
| 20260831032028 | 100 | 352 | 0.0 | 2.0 | 0.00 | 0.00 | 0.00 | 33 | 1007.6 |
| 20260831031554 | 100 | 352 | 0.0 | 3.0 | 0.00 | 0.00 | 0.00 | 33 | 1007.4 |
| 20260831031025 | 100 | 5 | 1.0 | 3.0 | 0.00 | 0.00 | 0.00 | 33 | 1007.2 |
| 20260831030525 | 100 | 0 | 0.0 | 3.0 | 0.00 | 0.00 | 0.00 | 33 | 1007.2 |
| 20260831030110 | 100 | 9 | 1.0 | 4.0 | 0.00 | 0.00 | 0.00 | 32 | 1007.1 |
| 20260831025525 | 100 | 31 | 1.0 | 6.0 | 0.00 | 0.00 | 0.00 | 32 | 1007.1 |
| 20260831025024 | 100 | 42 | 1.0 | 6.0 | 0.00 | 0.00 | 0.00 | 32 | 1007.0 |
| 20260831024611 | 100 | 0 | 1.0 | 4.0 | 0.00 | 0.00 | 0.00 | 32 | 1007.0 |
| 20260831024023 | 100 | 338 | 1.0 | 4.0 | 0.00 | 0.00 | 0.00 | 32 | 1006.9 |
| 20260831023525 | 100 | 0 | 0.0 | 2.0 | 0.00 | 0.00 | 0.00 | 32 | 1006.9 |
| 20260831023047 | 100 | 0 | 0.0 | 3.0 | 0.00 | 0.00 | 0.00 | 32 | 1006.8 |
| 20260831022524 | 100 | 0 | 1.0 | 3.0 | 0.00 | 0.00 | 0.00 | 32 | 1006.7 |
| 20260831022024 | 100 | 43 | 1.0 | 3.0 | 0.00 | 0.00 | 0.00 | 31 | 1006.7 |
| 20260831021554 | 100 | 348 | 0.0 | 4.0 | 0.00 | 0.00 | 0.00 | 32 | 1006.4 |
| 20260831021028 | 100 | 55 | 0.0 | 4.0 | 0.00 | 0.00 | 0.00 | 31 | 1006.3 |
| 20260831020526 | 101 | 55 | 1.0 | 4.0 | 0.00 | 0.00 | 0.00 | 31 | 1006.2 |
| 20260831020055 | 101 | 57 | 1.0 | 4.0 | 0.00 | 0.00 | 0.00 | 31 | 1006.2 |
| 20260831015528 | 101 | 346 | 1.0 | 4.0 | 0.00 | 0.00 | 0.00 | 31 | 1006.1 |
| 20260831015024 | 101 | 5 | 1.0 | 4.0 | 0.00 | 0.00 | 0.00 | 31 | 1006.2 |
| 20260831014551 | 102 | 0 | 1.0 | 4.0 | 0.00 | 0.00 | 0.00 | 31 | 1006.0 |
| 20260831014024 | 102 | 327 | 1.0 | 4.0 | 0.00 | 0.00 | 0.00 | 31 | 1005.9 |
| 20260831013525 | 102 | 0 | 1.0 | 3.0 | 0.00 | 0.00 | 0.00 | 30 | 1005.9 |
| 20260831013109 | 102 | 17 | 1.0 | 3.0 | 0.00 | 0.00 | 0.00 | 30 | 1005.9 |
| 20260831012523 | 102 | 41 | 0.0 | 3.0 | 0.00 | 0.00 | 0.00 | 30 | 1005.9 |
| 20260831012024 | 102 | 41 | 1.0 | 4.0 | 0.00 | 0.00 | 0.00 | 29 | 1005.8 |
| 20260831011549 | 102 | 321 | 0.0 | 5.0 | 0.00 | 0.00 | 0.00 | 30 | 1005.9 |
| 20260831011024 | 102 | 0 | 1.0 | 5.0 | 0.00 | 0.00 | 0.00 | 29 | 1006.0 |
| 20260831010526 | 102 | 315 | 2.0 | 8.0 | 0.00 | 0.00 | 0.00 | 29 | 1006.0 |
| 20260831010054 | 103 | 327 | 2.0 | 8.0 | 0.00 | 0.00 | 0.00 | 29 | 1006.2 |
| 20260831005524 | 103 | 331 | 3.0 | 8.0 | 0.00 | 0.00 | 0.00 | 29 | 1006.3 |
| 20260831005023 | 103 | 10 | 1.0 | 5.0 | 0.00 | 0.00 | 0.00 | 29 | 1006.2 |
| 20260831004550 | 103 | 103 | 1.0 | 5.0 | 0.00 | 0.00 | 0.00 | 29 | 1006.3 |
| 20260831004026 | 104 | 236 | 1.0 | 7.0 | 0.00 | 0.00 | 0.00 | 28 | 1006.4 |
| 20260831003526 | 104 | 0 | 2.0 | 7.0 | 0.00 | 0.00 | 0.00 | 28 | 1006.4 |
| 20260831003056 | 104 | 279 | 2.0 | 8.0 | 0.00 | 0.00 | 0.00 | 28 | 1006.4 |
| 20260831002527 | 104 | 294 | 2.0 | 8.0 | 0.00 | 0.00 | 0.00 | 28 | 1006.3 |
| 20260831002024 | 104 | 285 | 1.0 | 6.0 | 0.00 | 0.00 | 0.00 | 28 | 1006.3 |
| 20260831001549 | 104 | 232 | 3.0 | 7.0 | 0.00 | 0.00 | 0.00 | 28 | 1006.4 |
| 20260831001024 | 104 | 290 | 1.0 | 7.0 | 0.00 | 0.00 | 0.00 | 28 | 1006.3 |
| 20260831000524 | 104 | 344 | 2.0 | 7.0 | 0.00 | 0.00 | 0.00 | 28 | 1006.4 |
| 20260831000049 | 104 | 0 | 1.0 | 7.0 | 0.00 | 0.00 | 0.00 | 28 | 1006.3 |
| 20260830235527 | 105 | 5 | 2.0 | 6.0 | 0.00 | 0.00 | 0.00 | 27 | 1006.3 |
| 20260830235027 | 105 | 0 | 1.0 | 6.0 | 0.00 | 0.00 | 0.00 | 27 | 1006.4 |
| 20260830234604 | 105 | 344 | 2.0 | 6.0 | 0.00 | 0.00 | 0.00 | 27 | 1006.3 |
| 20260830234024 | 105 | 0 | 1.0 | 5.0 | 0.00 | 0.00 | 0.00 | 27 | 1006.3 |
| 20260830233524 | 105 | 0 | 1.0 | 8.0 | 0.00 | 0.00 | 0.00 | 27 | 1006.4 |
| 20260830233054 | 105 | 288 | 1.0 | 8.0 | 0.00 | 0.00 | 0.00 | 28 | 1006.6 |
| 20260830232527 | 104 | 221 | 1.0 | 8.0 | 0.00 | 0.00 | 0.00 | 28 | 1006.6 |
| 20260830232027 | 104 | 304 | 3.0 | 9.0 | 0.00 | 0.00 | 0.00 | 27 | 1006.6 |
| 20260830231549 | 104 | 311 | 2.0 | 9.0 | 0.00 | 0.00 | 0.00 | 28 | 1006.7 |
| 20260830231024 | 104 | 252 | 3.0 | 9.0 | 0.00 | 0.00 | 0.00 | 27 | 1006.8 |
| 20260830230524 | 104 | 285 | 2.0 | 8.0 | 0.00 | 0.00 | 0.00 | 28 | 1007.0 |
| 20260830230048 | 103 | 86 | 1.0 | 8.0 | 0.00 | 0.00 | 0.00 | 29 | 1007.0 |
| 20260830225525 | 104 | 311 | 3.0 | 8.0 | 0.00 | 0.00 | 0.00 | 28 | 1007.1 |
| 20260830225025 | 105 | 13 | 3.0 | 7.0 | 0.00 | 0.00 | 0.00 | 28 | 1007.3 |
| 20260830224554 | 105 | 360 | 1.0 | 5.0 | 0.00 | 0.00 | 0.00 | 28 | 1007.3 |
| 20260830224030 | 105 | 0 | 1.0 | 13.0 | 0.00 | 0.00 | 0.00 | 28 | 1007.3 |
| 20260830223524 | 104 | 302 | 2.0 | 13.0 | 0.00 | 0.00 | 0.00 | 29 | 1007.4 |
| 20260830223048 | 103 | 196 | 4.0 | 13.0 | 0.00 | 0.00 | 0.00 | 29 | 1007.6 |
| 20260830222524 | 104 | 288 | 4.0 | 9.0 | 0.00 | 0.00 | 0.00 | 29 | 1007.6 |
| 20260830222027 | 103 | 284 | 1.0 | 6.0 | 0.00 | 0.00 | 0.00 | 29 | 1007.7 |
| 20260830221550 | 103 | 24 | 2.0 | 6.0 | 0.00 | 0.00 | 0.00 | 29 | 1007.8 |
| 20260830221025 | 103 | 296 | 1.0 | 8.0 | 0.00 | 0.00 | 0.00 | 29 | 1007.9 |
| 20260830220524 | 104 | 336 | 3.0 | 8.0 | 0.00 | 0.00 | 0.00 | 29 | 1008.1 |
| 20260830220051 | 104 | 310 | 2.0 | 8.0 | 0.00 | 0.00 | 0.00 | 29 | 1008.1 |
| 20260830215524 | 105 | 202 | 2.0 | 7.0 | 0.00 | 0.00 | 0.00 | 28 | 1008.2 |
| 20260830215023 | 105 | 302 | 2.0 | 9.0 | 0.00 | 0.00 | 0.00 | 28 | 1008.3 |
| 20260830214547 | 105 | 159 | 3.0 | 10.0 | 0.00 | 0.00 | 0.00 | 28 | 1008.5 |
| 20260830214026 | 105 | 175 | 2.0 | 10.0 | 0.00 | 0.00 | 0.00 | 28 | 1008.6 |
| 20260830213526 | 104 | 340 | 2.0 | 10.0 | 0.00 | 0.00 | 0.00 | 28 | 1008.7 |
| 20260830213055 | 104 | 239 | 3.0 | 8.0 | 0.00 | 0.00 | 0.00 | 28 | 1008.9 |
| 20260830212524 | 104 | 292 | 3.0 | 8.0 | 0.00 | 0.00 | 0.00 | 29 | 1008.9 |
| 20260830212025 | 104 | 279 | 3.0 | 8.0 | 0.00 | 0.00 | 0.00 | 29 | 1009.0 |
| 20260830211552 | 104 | 5 | 1.0 | 9.0 | 0.00 | 0.00 | 0.00 | 29 | 1009.1 |
| 20260830211027 | 104 | 136 | 3.0 | 9.0 | 0.00 | 0.00 | 0.00 | 29 | 1009.2 |
| 20260830210525 | 104 | 135 | 2.0 | 8.0 | 0.00 | 0.00 | 0.00 | 29 | 1009.3 |
| 20260830210052 | 104 | 200 | 2.0 | 9.0 | 0.00 | 0.00 | 0.00 | 29 | 1009.5 |
| 20260830205524 | 105 | 269 | 4.0 | 9.0 | 0.00 | 0.00 | 0.00 | 29 | 1009.5 |
| 20260830205024 | 104 | 0 | 1.0 | 6.0 | 0.00 | 0.00 | 0.00 | 30 | 1009.5 |
| 20260830204555 | 104 | 91 | 2.0 | 6.0 | 0.00 | 0.00 | 0.00 | 29 | 1009.6 |
| 20260830204025 | 104 | 171 | 2.0 | 6.0 | 0.00 | 0.00 | 0.00 | 30 | 1009.7 |
| 20260830203524 | 103 | 164 | 1.0 | 7.0 | 0.00 | 0.00 | 0.00 | 31 | 1009.8 |
| 20260830203114 | 103 | 103 | 2.0 | 11.0 | 0.00 | 0.00 | 0.00 | 30 | 1009.9 |
| 20260830202528 | 103 | 171 | 3.0 | 11.0 | 0.00 | 0.00 | 0.00 | 30 | 1010.0 |
| 20260830202027 | 103 | 203 | 1.0 | 8.0 | 0.00 | 0.00 | 0.00 | 31 | 1010.1 |
| 20260830201550 | 102 | 217 | 2.0 | 8.0 | 0.00 | 0.00 | 0.00 | 32 | 1010.2 |
| 20260830201027 | 103 | 309 | 3.0 | 8.0 | 0.00 | 0.00 | 0.00 | 31 | 1010.3 |
| 20260830200531 | 101 | 265 | 1.0 | 7.0 | 0.00 | 0.00 | 0.00 | 33 | 1010.3 |
| 20260830200048 | 100 | 0 | 2.0 | 7.0 | 0.00 | 0.00 | 0.00 | 33 | 1010.4 |
| 20260830195527 | 101 | 15 | 1.0 | 7.0 | 0.00 | 0.00 | 0.00 | 33 | 1010.4 |
| 20260830195026 | 100 | 223 | 1.0 | 7.0 | 0.00 | 0.00 | 0.00 | 33 | 1010.6 |
| 20260830194606 | 101 | 38 | 1.0 | 7.0 | 0.00 | 0.00 | 0.00 | 33 | 1010.6 |
| 20260830194028 | 101 | 86 | 1.0 | 7.0 | 0.00 | 0.00 | 0.00 | 33 | 1010.6 |
| 20260830193525 | 101 | 49 | 2.0 | 7.0 | 0.00 | 0.00 | 0.00 | 33 | 1010.7 |
| 20260830193051 | 101 | 91 | 1.0 | 6.0 | 0.00 | 0.00 | 0.00 | 33 | 1010.7 |
| 20260830192527 | 100 | 122 | 1.0 | 10.0 | 0.00 | 0.00 | 0.00 | 33 | 1010.8 |
| 20260830192031 | 100 | 225 | 2.0 | 10.0 | 0.00 | 0.00 | 0.00 | 33 | 1011.0 |
| 20260830191601 | 100 | 333 | 3.0 | 9.0 | 0.00 | 0.00 | 0.00 | 33 | 1010.9 |
| 20260830191025 | 100 | 306 | 3.0 | 9.0 | 0.00 | 0.00 | 0.00 | 34 | 1011.2 |
| 20260830190527 | 100 | 188 | 2.0 | 8.0 | 0.00 | 0.00 | 0.00 | 34 | 1011.2 |
| 20260830190052 | 100 | 0 | 1.0 | 7.0 | 0.00 | 0.00 | 0.00 | 34 | 1011.4 |
| 20260830185529 | 100 | 91 | 2.0 | 7.0 | 0.00 | 0.00 | 0.00 | 35 | 1011.4 |
| 20260830185027 | 99 | 190 | 1.0 | 7.0 | 0.00 | 0.00 | 0.00 | 36 | 1011.4 |
| 20260830184551 | 98 | 235 | 1.0 | 9.0 | 0.00 | 0.00 | 0.00 | 36 | 1011.5 |
| 20260830184028 | 99 | 0 | 3.0 | 9.0 | 0.00 | 0.00 | 0.00 | 35 | 1011.6 |
| 20260830183527 | 100 | 128 | 2.0 | 9.0 | 0.00 | 0.00 | 0.00 | 34 | 1011.7 |
| 20260830183105 | 100 | 146 | 2.0 | 9.0 | 0.00 | 0.00 | 0.00 | 36 | 1011.8 |
| 20260830182525 | 99 | 186 | 2.0 | 8.0 | 0.00 | 0.00 | 0.00 | 36 | 1011.9 |
| 20260830182026 | 98 | 134 | 2.0 | 8.0 | 0.00 | 0.00 | 0.00 | 36 | 1011.9 |
| 20260830181557 | 98 | 333 | 1.0 | 9.0 | 0.00 | 0.00 | 0.00 | 35 | 1011.9 |
| 20260830181031 | 99 | 202 | 3.0 | 10.0 | 0.00 | 0.00 | 0.00 | 36 | 1012.1 |
| 20260830180527 | 99 | 174 | 3.0 | 10.0 | 0.00 | 0.00 | 0.00 | 35 | 1012.1 |
| 20260830180053 | 99 | 179 | 3.0 | 8.0 | 0.00 | 0.00 | 0.00 | 36 | 1012.2 |
| 20260830175528 | 98 | 127 | 2.0 | 7.0 | 0.00 | 0.00 | 0.00 | 37 | 1012.3 |
| 20260830175028 | 98 | 269 | 2.0 | 8.0 | 0.00 | 0.00 | 0.00 | 36 | 1012.3 |
| 20260830174551 | 98 | 137 | 4.0 | 8.0 | 0.00 | 0.00 | 0.00 | 36 | 1012.4 |
| 20260830174025 | 98 | 160 | 1.0 | 9.0 | 0.00 | 0.00 | 0.00 | 37 | 1012.4 |
| 20260830173527 | 97 | 0 | 1.0 | 9.0 | 0.00 | 0.00 | 0.00 | 37 | 1012.4 |
| 20260830173107 | 97 | 171 | 2.0 | 9.0 | 0.00 | 0.00 | 0.00 | 37 | 1012.4 |
| 20260830172523 | 97 | 178 | 3.0 | 9.0 | 0.00 | 0.00 | 0.00 | 38 | 1012.4 |
| 20260830172024 | 97 | 150 | 2.0 | 9.0 | 0.00 | 0.00 | 0.00 | 37 | 1012.4 |
| 20260830171550 | 96 | 192 | 3.0 | 9.0 | 0.00 | 0.00 | 0.00 | 38 | 1012.4 |
| 20260830171024 | 96 | 152 | 1.0 | 9.0 | 0.00 | 0.00 | 0.00 | 38 | 1012.3 |
| 20260830170525 | 95 | 153 | 4.0 | 9.0 | 0.00 | 0.00 | 0.00 | 39 | 1012.2 |
| 20260830170051 | 95 | 240 | 4.0 | 10.0 | 0.00 | 0.00 | 0.00 | 39 | 1012.3 |
| 20260830165524 | 95 | 157 | 3.0 | 10.0 | 0.00 | 0.00 | 0.00 | 40 | 1012.3 |
| 20260830165023 | 94 | 154 | 2.0 | 8.0 | 0.00 | 0.00 | 0.00 | 40 | 1012.3 |
| 20260830164609 | 94 | 121 | 3.0 | 8.0 | 0.00 | 0.00 | 0.00 | 40 | 1012.4 |
| 20260830164028 | 94 | 178 | 2.0 | 11.0 | 0.00 | 0.00 | 0.00 | 41 | 1012.3 |
| 20260830163525 | 94 | 163 | 2.0 | 11.0 | 0.00 | 0.00 | 0.00 | 41 | 1012.4 |
| 20260830163105 | 93 | 180 | 3.0 | 8.0 | 0.00 | 0.00 | 0.00 | 41 | 1012.4 |
| 20260830162524 | 93 | 113 | 3.0 | 9.0 | 0.00 | 0.00 | 0.00 | 42 | 1012.4 |
| 20260830162024 | 92 | 161 | 2.0 | 9.0 | 0.00 | 0.00 | 0.00 | 41 | 1012.5 |
| 20260830161549 | 92 | 144 | 3.0 | 8.0 | 0.00 | 0.00 | 0.00 | 42 | 1012.7 |
| 20260830161023 | 92 | 161 | 3.0 | 10.0 | 0.00 | 0.00 | 0.00 | 43 | 1012.5 |
| 20260830160527 | 91 | 161 | 3.0 | 10.0 | 0.00 | 0.00 | 0.00 | 44 | 1012.5 |
| 20260830160047 | 91 | 131 | 4.0 | 11.0 | 0.00 | 0.00 | 0.00 | 44 | 1012.5 |
| 20260830155524 | 91 | 151 | 3.0 | 11.0 | 0.00 | 0.00 | 0.00 | 45 | 1012.5 |
| 20260830155027 | 90 | 136 | 3.0 | 10.0 | 0.00 | 0.00 | 0.00 | 45 | 1012.5 |
| 20260830154555 | 90 | 122 | 3.0 | 10.0 | 0.00 | 0.00 | 0.00 | 46 | 1012.4 |
| 20260830154026 | 89 | 150 | 3.0 | 10.0 | 0.00 | 0.00 | 0.00 | 47 | 1012.4 |
| 20260830153524 | 89 | 97 | 4.0 | 9.0 | 0.00 | 0.00 | 0.00 | 47 | 1012.4 |
| 20260830153052 | 89 | 92 | 3.0 | 10.0 | 0.00 | 0.00 | 0.00 | 48 | 1012.4 |
| 20260830152529 | 88 | 101 | 3.0 | 12.0 | 0.00 | 0.00 | 0.00 | 48 | 1012.4 |
| 20260830152024 | 88 | 134 | 5.0 | 12.0 | 0.00 | 0.00 | 0.00 | 49 | 1012.5 |
| 20260830151550 | 87 | 128 | 3.0 | 11.0 | 0.00 | 0.00 | 0.00 | 49 | 1012.5 |
| 20260830151028 | 87 | 105 | 4.0 | 11.0 | 0.00 | 0.00 | 0.00 | 50 | 1012.6 |
| 20260830150524 | 87 | 88 | 4.0 | 10.0 | 0.00 | 0.00 | 0.00 | 50 | 1012.5 |
| 20260830150050 | 87 | 126 | 3.0 | 11.0 | 0.00 | 0.00 | 0.00 | 51 | 1012.6 |
| 20260830145528 | 87 | 134 | 4.0 | 11.0 | 0.00 | 0.00 | 0.00 | 51 | 1012.7 |
| 20260830145024 | 87 | 121 | 4.0 | 12.0 | 0.00 | 0.00 | 0.00 | 51 | 1012.8 |
| 20260830144603 | 87 | 162 | 4.0 | 12.0 | 0.00 | 0.00 | 0.00 | 51 | 1012.8 |
| 20260830144102 | 86 | 191 | 5.0 | 12.0 | 0.00 | 0.00 | 0.00 | 51 | 1012.7 |
| 20260830143526 | 86 | 135 | 3.0 | 12.0 | 0.00 | 0.00 | 0.00 | 51 | 1012.8 |
| 20260830143053 | 86 | 165 | 4.0 | 12.0 | 0.00 | 0.00 | 0.00 | 51 | 1012.7 |
| 20260830142524 | 86 | 140 | 4.0 | 11.0 | 0.00 | 0.00 | 0.00 | 51 | 1012.7 |
| 20260830142025 | 86 | 155 | 4.0 | 10.0 | 0.00 | 0.00 | 0.00 | 51 | 1012.7 |
| 20260830141548 | 86 | 157 | 3.0 | 10.0 | 0.00 | 0.00 | 0.00 | 51 | 1012.6 |
| 20260830141028 | 85 | 153 | 3.0 | 11.0 | 0.00 | 0.00 | 0.00 | 52 | 1012.4 |
| 20260830140524 | 85 | 155 | 3.0 | 11.0 | 0.00 | 0.00 | 0.00 | 52 | 1012.4 |
| 20260830140056 | 85 | 141 | 4.0 | 11.0 | 0.00 | 0.00 | 0.00 | 53 | 1012.3 |
| 20260830135526 | 84 | 154 | 2.0 | 9.0 | 0.00 | 0.00 | 0.00 | 53 | 1012.2 |
| 20260830135027 | 84 | 119 | 2.0 | 7.0 | 0.00 | 0.00 | 0.00 | 54 | 1012.3 |
| 20260830134553 | 84 | 137 | 3.0 | 8.0 | 0.00 | 0.00 | 0.00 | 54 | 1012.2 |
| 20260830134025 | 84 | 151 | 3.0 | 11.0 | 0.00 | 0.00 | 0.00 | 54 | 1012.0 |
| 20260830133531 | 84 | 168 | 3.0 | 11.0 | 0.00 | 0.00 | 0.00 | 54 | 1011.8 |
| 20260830133126 | 84 | 141 | 4.0 | 11.0 | 0.00 | 0.00 | 0.00 | 53 | 1011.8 |
| 20260830132527 | 84 | 203 | 3.0 | 10.0 | 0.00 | 0.00 | 0.00 | 54 | 1011.7 |
| 20260830132027 | 83 | 173 | 4.0 | 8.0 | 0.00 | 0.00 | 0.00 | 54 | 1011.5 |
| 20260830131608 | 83 | 144 | 1.0 | 6.0 | 0.00 | 0.00 | 0.00 | 54 | 1011.5 |
| 20260830131024 | 83 | 173 | 1.0 | 7.0 | 0.00 | 0.00 | 0.00 | 55 | 1011.4 |
| 20260830130528 | 83 | 186 | 1.0 | 7.0 | 0.00 | 0.00 | 0.00 | 55 | 1011.3 |
| 20260830130048 | 83 | 161 | 2.0 | 9.0 | 0.00 | 0.00 | 0.00 | 55 | 1011.2 |
| 20260830125523 | 83 | 113 | 3.0 | 9.0 | 0.00 | 0.00 | 0.00 | 55 | 1011.1 |
| 20260830125025 | 83 | 133 | 3.0 | 12.0 | 0.00 | 0.00 | 0.00 | 55 | 1011.0 |
| 20260830124607 | 83 | 129 | 3.0 | 12.0 | 0.00 | 0.00 | 0.00 | 55 | 1010.9 |
| 20260830124031 | 83 | 140 | 4.0 | 12.0 | 0.00 | 0.00 | 0.00 | 55 | 1010.7 |
| 20260830123523 | 83 | 107 | 5.0 | 14.0 | 0.00 | 0.00 | 0.00 | 54 | 1010.8 |
| 20260830123053 | 84 | 142 | 5.0 | 14.0 | 0.00 | 0.00 | 0.00 | 54 | 1010.7 |
| 20260830122525 | 84 | 102 | 7.0 | 16.0 | 0.00 | 0.00 | 0.00 | 53 | 1010.7 |
| 20260830122023 | 84 | 175 | 7.0 | 16.0 | 0.00 | 0.00 | 0.00 | 52 | 1010.7 |
| 20260830121546 | 84 | 136 | 6.0 | 15.0 | 0.00 | 0.00 | 0.00 | 51 | 1010.6 |
| 20260830121027 | 84 | 177 | 7.0 | 15.0 | 0.00 | 0.00 | 0.00 | 50 | 1010.6 |
| 20260830120525 | 84 | 166 | 4.0 | 11.0 | 0.00 | 0.00 | 0.00 | 51 | 1010.5 |
| 20260830120053 | 84 | 171 | 5.0 | 10.0 | 0.00 | 0.00 | 0.00 | 51 | 1010.5 |
| 20260830115524 | 84 | 171 | 3.0 | 9.0 | 0.00 | 0.00 | 0.00 | 51 | 1010.5 |
| 20260830115024 | 84 | 113 | 2.0 | 9.0 | 0.00 | 0.00 | 0.00 | 51 | 1010.6 |
| 20260830114550 | 84 | 150 | 3.0 | 9.0 | 0.00 | 0.00 | 0.00 | 51 | 1010.6 |
| 20260830114024 | 84 | 161 | 4.0 | 11.0 | 0.00 | 0.00 | 0.00 | 51 | 1010.6 |
| 20260830113528 | 84 | 146 | 4.0 | 11.0 | 0.00 | 0.00 | 0.00 | 51 | 1010.5 |
| 20260830113052 | 84 | 162 | 4.0 | 11.0 | 0.00 | 0.00 | 0.00 | 50 | 1010.6 |
| 20260830112524 | 84 | 131 | 4.0 | 11.0 | 0.00 | 0.00 | 0.00 | 50 | 1010.6 |
| 20260830112026 | 85 | 149 | 5.0 | 12.0 | 0.00 | 0.00 | 0.00 | 50 | 1010.5 |
| 20260830111550 | 85 | 186 | 6.0 | 12.0 | 0.00 | 0.00 | 0.00 | 50 | 1010.5 |
| 20260830111025 | 84 | 169 | 4.0 | 10.0 | 0.00 | 0.00 | 0.00 | 50 | 1010.5 |
| 20260830110524 | 84 | 144 | 4.0 | 9.0 | 0.00 | 0.00 | 0.00 | 51 | 1010.4 |
| 20260830110052 | 84 | 160 | 2.0 | 8.0 | 0.00 | 0.00 | 0.00 | 52 | 1010.4 |
| 20260830105523 | 84 | 166 | 2.0 | 8.0 | 0.00 | 0.00 | 0.00 | 52 | 1010.5 |
| 20260830105023 | 84 | 150 | 2.0 | 8.0 | 0.00 | 0.00 | 0.00 | 53 | 1010.5 |
| 20260830104553 | 84 | 156 | 3.0 | 7.0 | 0.00 | 0.00 | 0.00 | 53 | 1010.5 |
| 20260830104028 | 83 | 190 | 2.0 | 6.0 | 0.00 | 0.00 | 0.00 | 54 | 1010.6 |
| 20260830103528 | 83 | 159 | 1.0 | 4.0 | 0.00 | 0.00 | 0.00 | 54 | 1010.6 |
| 20260830103051 | 83 | 180 | 1.0 | 2.0 | 0.00 | 0.00 | 0.00 | 54 | 1010.6 |
| 20260830102523 | 83 | 0 | 1.0 | 3.0 | 0.00 | 0.00 | 0.00 | 54 | 1010.5 |
| 20260830102023 | 84 | 182 | 0.0 | 3.0 | 0.00 | 0.00 | 0.00 | 54 | 1010.5 |
| 20260830101551 | 84 | 182 | 1.0 | 7.0 | 0.00 | 0.00 | 0.00 | 54 | 1010.6 |
| 20260830101026 | 84 | 0 | 0.0 | 7.0 | 0.00 | 0.00 | 0.00 | 54 | 1010.4 |
| 20260830100526 | 84 | 192 | 2.0 | 8.0 | 0.00 | 0.00 | 0.00 | 54 | 1010.3 |
| 20260830100051 | 84 | 215 | 3.0 | 8.0 | 0.00 | 0.00 | 0.00 | 54 | 1010.3 |
| 20260830095524 | 84 | 202 | 3.0 | 9.0 | 0.00 | 0.00 | 0.00 | 53 | 1010.2 |
| 20260830095025 | 84 | 224 | 3.0 | 9.0 | 0.00 | 0.00 | 0.00 | 53 | 1010.0 |
| 20260830094556 | 84 | 211 | 3.0 | 7.0 | 0.00 | 0.00 | 0.00 | 53 | 1010.0 |
| 20260830094028 | 85 | 221 | 2.0 | 7.0 | 0.00 | 0.00 | 0.00 | 53 | 1009.9 |
| 20260830093529 | 85 | 190 | 1.0 | 3.0 | 0.00 | 0.00 | 0.00 | 52 | 1010.0 |
| 20260830093047 | 85 | 190 | 0.0 | 2.0 | 0.00 | 0.00 | 0.00 | 52 | 1009.8 |
| 20260830092524 | 85 | 190 | 0.0 | 3.0 | 0.00 | 0.00 | 0.00 | 52 | 1009.7 |
| 20260830092025 | 85 | 190 | 1.0 | 3.0 | 0.00 | 0.00 | 0.00 | 52 | 1009.7 |
| 20260830091555 | 85 | 190 | 1.0 | 3.0 | 0.00 | 0.00 | 0.00 | 52 | 1009.6 |
| 20260830091025 | 85 | 0 | 0.0 | 2.0 | 0.00 | 0.00 | 0.00 | 51 | 1009.6 |
| 20260830090529 | 85 | 0 | 0.0 | 2.0 | 0.00 | 0.00 | 0.00 | 51 | 1009.6 |
| 20260830090051 | 85 | 190 | 0.0 | 2.0 | 0.00 | 0.00 | 0.00 | 51 | 1009.5 |
| 20260830085523 | 85 | 0 | 0.0 | 3.0 | 0.00 | 0.00 | 0.00 | 51 | 1009.5 |
| 20260830085024 | 85 | 190 | 1.0 | 3.0 | 0.00 | 0.00 | 0.00 | 50 | 1009.5 |
| 20260830084554 | 85 | 0 | 0.0 | 3.0 | 0.00 | 0.00 | 0.00 | 50 | 1009.4 |
| 20260830084024 | 85 | 190 | 1.0 | 6.0 | 0.00 | 0.00 | 0.00 | 50 | 1009.4 |
| 20260830083527 | 86 | 190 | 1.0 | 6.0 | 0.00 | 0.00 | 0.00 | 50 | 1009.4 |
| 20260830083102 | 86 | 0 | 2.0 | 6.0 | 0.00 | 0.00 | 0.00 | 49 | 1009.3 |
| 20260830082527 | 86 | 182 | 1.0 | 6.0 | 0.00 | 0.00 | 0.00 | 49 | 1009.2 |
| 20260830082026 | 86 | 195 | 2.0 | 8.0 | 0.00 | 0.00 | 0.00 | 49 | 1009.1 |
| 20260830081549 | 86 | 178 | 3.0 | 8.0 | 0.00 | 0.00 | 0.00 | 48 | 1009.1 |
| 20260830081024 | 87 | 222 | 1.0 | 6.0 | 0.00 | 0.00 | 0.00 | 48 | 1009.1 |
| 20260830080524 | 87 | 211 | 3.0 | 8.0 | 0.00 | 0.00 | 0.00 | 46 | 1009.1 |
| 20260830080049 | 88 | 189 | 3.0 | 8.0 | 0.00 | 0.00 | 0.00 | 45 | 1009.0 |
| 20260830075524 | 88 | 160 | 3.0 | 7.0 | 0.00 | 0.00 | 0.00 | 44 | 1009.0 |
| 20260830075027 | 88 | 194 | 3.0 | 7.0 | 0.00 | 0.00 | 0.00 | 44 | 1009.0 |
| 20260830074549 | 88 | 176 | 2.0 | 5.0 | 0.00 | 0.00 | 0.00 | 44 | 1009.0 |
| 20260830074025 | 88 | 158 | 1.0 | 4.0 | 0.00 | 0.00 | 0.00 | 44 | 1009.1 |
| 20260830073525 | 88 | 0 | 0.0 | 6.0 | 0.00 | 0.00 | 0.00 | 44 | 1009.2 |
| 20260830073052 | 88 | 0 | 2.0 | 10.0 | 0.00 | 0.00 | 0.00 | 44 | 1009.3 |
| 20260830072528 | 87 | 82 | 3.0 | 10.0 | 0.00 | 0.00 | 0.00 | 46 | 1009.2 |
| 20260830072023 | 86 | 96 | 2.0 | 8.0 | 0.00 | 0.00 | 0.00 | 47 | 1009.1 |
| 20260830071549 | 86 | 103 | 2.0 | 11.0 | 0.00 | 0.00 | 0.00 | 48 | 1009.1 |
| 20260830071024 | 86 | 78 | 3.0 | 14.0 | 0.00 | 0.00 | 0.00 | 49 | 1009.0 |
| 20260830070523 | 86 | 118 | 5.0 | 17.0 | 0.00 | 0.00 | 0.00 | 49 | 1009.0 |
| 20260830065527 | 86 | 105 | 7.0 | 17.0 | 0.00 | 0.00 | 0.00 | 50 | 1009.0 |
| 20260830065027 | 85 | 87 | 7.0 | 15.0 | 0.00 | 0.00 | 0.00 | 52 | 1009.1 |
| 20260830064555 | 85 | 169 | 6.0 | 15.0 | 0.00 | 0.00 | 0.00 | 53 | 1009.2 |
| 20260830064024 | 85 | 111 | 7.0 | 15.0 | 0.00 | 0.00 | 0.00 | 53 | 1009.3 |
| 20260830063525 | 85 | 99 | 7.0 | 13.0 | 0.00 | 0.00 | 0.00 | 53 | 1009.4 |
| 20260830063056 | 85 | 152 | 5.0 | 14.0 | 0.00 | 0.00 | 0.00 | 54 | 1009.5 |
| 20260830062527 | 85 | 126 | 5.0 | 15.0 | 0.00 | 0.00 | 0.00 | 54 | 1009.6 |
| 20260830062024 | 85 | 105 | 6.0 | 15.0 | 0.00 | 0.00 | 0.00 | 54 | 1009.6 |
| 20260830061602 | 85 | 106 | 6.0 | 15.0 | 0.00 | 0.00 | 0.00 | 53 | 1009.7 |
| 20260830061025 | 84 | 82 | 3.0 | 13.0 | 0.00 | 0.00 | 0.00 | 53 | 1009.8 |
| 20260830060528 | 84 | 121 | 4.0 | 18.0 | 0.00 | 0.00 | 0.00 | 54 | 1009.9 |
| 20260830060049 | 84 | 81 | 7.0 | 18.0 | 0.00 | 0.00 | 0.00 | 56 | 1010.0 |
| 20260830055524 | 84 | 158 | 7.0 | 20.0 | 0.00 | 0.00 | 0.00 | 56 | 1010.2 |
| 20260830055023 | 85 | 101 | 7.0 | 20.0 | 0.00 | 0.00 | 0.00 | 55 | 1010.1 |
| 20260830054550 | 85 | 74 | 9.0 | 20.0 | 0.00 | 0.00 | 0.00 | 54 | 1010.1 |
| 20260830054023 | 86 | 126 | 9.0 | 23.0 | 0.00 | 0.00 | 0.00 | 54 | 1010.1 |
| 20260830053524 | 86 | 159 | 10.0 | 23.0 | 0.00 | 0.00 | 0.00 | 53 | 1010.1 |
| 20260830053051 | 87 | 155 | 9.0 | 19.0 | 0.00 | 0.00 | 0.00 | 51 | 1010.1 |
| 20260830052530 | 89 | 128 | 8.0 | 20.0 | 0.00 | 0.00 | 0.00 | 49 | 1010.4 |
| 20260830052024 | 89 | 155 | 10.0 | 20.0 | 0.00 | 0.00 | 0.00 | 46 | 1010.5 |
| 20260830051554 | 89 | 146 | 7.0 | 19.0 | 0.00 | 0.00 | 0.00 | 46 | 1010.5 |
| 20260830051024 | 89 | 122 | 7.0 | 21.0 | 0.00 | 0.00 | 0.00 | 46 | 1010.5 |
| 20260830050525 | 89 | 144 | 9.0 | 21.0 | 0.00 | 0.00 | 0.00 | 46 | 1010.6 |
| 20260830050058 | 89 | 97 | 9.0 | 20.0 | 0.00 | 0.00 | 0.00 | 46 | 1010.4 |